Location: Budapest
(47.4979°N, 19.0402°E)
Time: 23:30:32
(UTC+01:00)

Tiangong 2 - Pass Details

Date: 17 October 2017
Orbit: 386 x 390 km, 42.8° (Epoch: 13 December)

Event Time Altitude Azimuth Distance (km) Brightness Sun altitude
Exits shadow 05:10:51 29° 166° (SSE) 746 2.5 -20.0°
Drops below altitude 10° 05:13:11 10° 124° (SE) 1,421 4.6 -19.7°
Sets 05:15:23 0° 114° (ESE) 2,276 6.0 -19.3°
